Year,Month,Day,Hour,Minute,Value (Times are PST for temperature in C)
2007,07,09,00,00,13.70
2007,07,09,00,01,13.70
2007,07,09,00,02,13.70
2007,07,09,00,03,13.70
2007,07,09,00,04,13.70
2007,07,09,00,05,13.70
2007,07,09,00,06,13.70
2007,07,09,00,07,13.70
2007,07,09,00,08,13.60
2007,07,09,00,09,13.60
2007,07,09,00,10,13.60
2007,07,09,00,11,13.60
2007,07,09,00,12,13.60
2007,07,09,00,13,13.50
2007,07,09,00,14,13.50
2007,07,09,00,15,13.40
2007,07,09,00,16,13.40
2007,07,09,00,17,13.40
2007,07,09,00,18,13.40
2007,07,09,00,19,13.30
2007,07,09,00,20,13.30
2007,07,09,00,21,13.30
2007,07,09,00,22,13.30
2007,07,09,00,23,13.30
2007,07,09,00,24,13.30
2007,07,09,00,25,13.40
2007,07,09,00,26,13.40
2007,07,09,00,27,13.40
2007,07,09,00,28,13.40
2007,07,09,00,29,13.40
2007,07,09,00,30,13.50
2007,07,09,00,31,13.60
2007,07,09,00,32,13.70
2007,07,09,00,33,13.80
2007,07,09,00,34,13.80
2007,07,09,00,35,13.70
2007,07,09,00,36,13.70
2007,07,09,00,37,13.70
2007,07,09,00,38,13.60
2007,07,09,00,39,13.60
2007,07,09,00,40,13.50
2007,07,09,00,41,13.40
2007,07,09,00,42,13.40
2007,07,09,00,43,13.40
2007,07,09,00,44,13.30
2007,07,09,00,45,13.30
2007,07,09,00,46,13.30
2007,07,09,00,47,13.30
2007,07,09,00,48,13.30
2007,07,09,00,49,13.20
2007,07,09,00,50,13.20
2007,07,09,00,51,13.20
2007,07,09,00,52,13.10
2007,07,09,00,53,13.10
2007,07,09,00,54,13.00
2007,07,09,00,55,13.00
2007,07,09,00,56,12.90
2007,07,09,00,57,12.90
2007,07,09,00,58,12.90
2007,07,09,00,59,12.80
2007,07,09,01,00,12.80
2007,07,09,01,01,12.70
2007,07,09,01,02,12.70
2007,07,09,01,03,12.70
2007,07,09,01,04,12.60
2007,07,09,01,05,12.60
2007,07,09,01,06,12.60
2007,07,09,01,07,12.60
2007,07,09,01,08,12.50
2007,07,09,01,09,12.50
2007,07,09,01,10,12.40
2007,07,09,01,11,12.40
2007,07,09,01,12,12.40
2007,07,09,01,13,12.40
2007,07,09,01,14,12.30
2007,07,09,01,15,12.30
2007,07,09,01,16,12.30
2007,07,09,01,17,12.30
2007,07,09,01,18,12.30
2007,07,09,01,19,12.20
2007,07,09,01,20,12.20
2007,07,09,01,21,12.20
2007,07,09,01,22,12.20
2007,07,09,01,23,12.20
2007,07,09,01,24,12.20
2007,07,09,01,25,12.20
2007,07,09,01,26,12.10
2007,07,09,01,27,12.10
2007,07,09,01,28,12.10
2007,07,09,01,29,12.10
2007,07,09,01,30,12.10
2007,07,09,01,31,12.10
2007,07,09,01,32,12.10
2007,07,09,01,33,12.00
2007,07,09,01,34,12.00
2007,07,09,01,35,12.00
2007,07,09,01,36,12.00
2007,07,09,01,37,11.90
2007,07,09,01,38,11.90
2007,07,09,01,39,11.90
2007,07,09,01,40,11.90
2007,07,09,01,41,11.80
2007,07,09,01,42,11.80
2007,07,09,01,43,11.80
2007,07,09,01,44,11.80
2007,07,09,01,45,11.80
2007,07,09,01,46,11.80
2007,07,09,01,47,11.70
2007,07,09,01,48,11.70
2007,07,09,01,49,11.70
2007,07,09,01,50,11.70
2007,07,09,01,51,11.70
2007,07,09,01,52,11.70
2007,07,09,01,53,11.60
2007,07,09,01,54,11.60
2007,07,09,01,55,11.60
2007,07,09,01,56,11.60
2007,07,09,01,57,11.60
2007,07,09,01,58,11.60
2007,07,09,01,59,11.60
2007,07,09,02,00,11.60
2007,07,09,02,01,11.50
2007,07,09,02,02,11.50
2007,07,09,02,03,11.50
2007,07,09,02,04,11.50
2007,07,09,02,05,11.40
2007,07,09,02,06,11.40
2007,07,09,02,07,11.40
2007,07,09,02,08,11.40
2007,07,09,02,09,11.30
2007,07,09,02,10,11.30
2007,07,09,02,11,11.30
2007,07,09,02,12,11.30
2007,07,09,02,13,11.30
2007,07,09,02,14,11.30
2007,07,09,02,15,11.30
2007,07,09,02,16,11.30
2007,07,09,02,17,11.30
2007,07,09,02,18,11.30
2007,07,09,02,19,11.20
2007,07,09,02,20,11.20
2007,07,09,02,21,11.30
2007,07,09,02,22,11.30
2007,07,09,02,23,11.30
2007,07,09,02,24,11.30
2007,07,09,02,25,11.30
2007,07,09,02,26,11.30
2007,07,09,02,27,11.30
2007,07,09,02,28,11.20
2007,07,09,02,29,11.20
2007,07,09,02,30,11.20
2007,07,09,02,31,11.20
2007,07,09,02,32,11.20
2007,07,09,02,33,11.20
2007,07,09,02,34,11.20
2007,07,09,02,35,11.20
2007,07,09,02,36,11.10
2007,07,09,02,37,11.10
2007,07,09,02,38,11.10
2007,07,09,02,39,11.10
2007,07,09,02,40,11.20
2007,07,09,02,41,11.10
2007,07,09,02,42,11.10
2007,07,09,02,43,11.10
2007,07,09,02,44,11.10
2007,07,09,02,45,11.10
2007,07,09,02,46,11.10
2007,07,09,02,47,11.10
2007,07,09,02,48,11.10
2007,07,09,02,49,11.10
2007,07,09,02,50,11.10
2007,07,09,02,51,11.10
2007,07,09,02,52,11.10
2007,07,09,02,53,11.10
2007,07,09,02,54,11.10
2007,07,09,02,55,11.10
2007,07,09,02,56,11.10
2007,07,09,02,57,11.10
2007,07,09,02,58,11.20
2007,07,09,02,59,11.20
2007,07,09,03,00,11.20
2007,07,09,03,01,11.10
2007,07,09,03,02,11.10
2007,07,09,03,03,11.10
2007,07,09,03,04,11.10
2007,07,09,03,05,11.10
2007,07,09,03,06,11.10
2007,07,09,03,07,11.10
2007,07,09,03,08,11.10
2007,07,09,03,09,11.20
2007,07,09,03,10,11.20
2007,07,09,03,11,11.20
2007,07,09,03,12,11.20
2007,07,09,03,13,11.20
2007,07,09,03,14,11.20
2007,07,09,03,15,11.20
2007,07,09,03,16,11.20
2007,07,09,03,17,11.20
2007,07,09,03,18,11.20
2007,07,09,03,19,11.20
2007,07,09,03,20,11.20
2007,07,09,03,21,11.20
2007,07,09,03,22,11.20
2007,07,09,03,23,11.20
2007,07,09,03,24,11.20
2007,07,09,03,25,11.20
2007,07,09,03,26,11.20
2007,07,09,03,27,11.20
2007,07,09,03,28,11.20
2007,07,09,03,29,11.30
2007,07,09,03,30,11.30
2007,07,09,03,31,11.30
2007,07,09,03,32,11.30
2007,07,09,03,33,11.20
2007,07,09,03,34,11.20
2007,07,09,03,35,11.20
2007,07,09,03,36,11.20
2007,07,09,03,37,11.20
2007,07,09,03,38,11.20
2007,07,09,03,39,11.20
2007,07,09,03,40,11.20
2007,07,09,03,41,11.10
2007,07,09,03,42,11.10
2007,07,09,03,43,11.10
2007,07,09,03,44,11.10
2007,07,09,03,45,11.10
2007,07,09,03,46,11.10
2007,07,09,03,47,11.10
2007,07,09,03,48,11.10
2007,07,09,03,49,11.10
2007,07,09,03,50,11.10
2007,07,09,03,51,11.10
2007,07,09,03,52,11.10
2007,07,09,03,53,11.00
2007,07,09,03,54,11.00
2007,07,09,03,55,11.00
2007,07,09,03,56,11.00
2007,07,09,03,57,11.00
2007,07,09,03,58,11.00
2007,07,09,03,59,11.00
2007,07,09,04,00,11.00
2007,07,09,04,01,11.00
2007,07,09,04,02,11.00
2007,07,09,04,03,11.00
2007,07,09,04,05,11.20
2007,07,09,04,06,11.20
2007,07,09,04,07,11.30
2007,07,09,04,08,11.30
2007,07,09,04,09,11.30
2007,07,09,04,10,11.20
2007,07,09,04,11,11.20
2007,07,09,04,12,11.20
2007,07,09,04,13,11.20
2007,07,09,04,14,11.20
2007,07,09,04,15,11.20
2007,07,09,04,16,11.20
2007,07,09,04,17,11.20
2007,07,09,04,18,11.20
2007,07,09,04,19,11.10
2007,07,09,04,20,11.10
2007,07,09,04,21,11.10
2007,07,09,04,22,11.10
2007,07,09,04,23,11.00
2007,07,09,04,24,11.00
2007,07,09,04,25,11.00
2007,07,09,04,26,10.90
2007,07,09,04,27,10.90
2007,07,09,04,28,10.90
2007,07,09,04,29,10.90
2007,07,09,04,30,10.90
2007,07,09,04,31,10.90
2007,07,09,04,32,10.80
2007,07,09,04,33,10.80
2007,07,09,04,34,10.80
2007,07,09,04,35,10.80
2007,07,09,04,36,10.80
2007,07,09,04,37,10.70
2007,07,09,04,38,10.70
2007,07,09,04,39,10.70
2007,07,09,04,40,10.70
2007,07,09,04,41,10.70
2007,07,09,04,42,10.60
2007,07,09,04,43,10.60
2007,07,09,04,44,10.60
2007,07,09,04,45,10.60
2007,07,09,04,46,10.60
2007,07,09,04,47,10.50
2007,07,09,04,48,10.50
2007,07,09,04,49,10.50
2007,07,09,04,50,10.40
2007,07,09,04,51,10.40
2007,07,09,04,52,10.40
2007,07,09,04,53,10.40
2007,07,09,04,54,10.40
2007,07,09,04,55,10.40
2007,07,09,04,56,10.30
2007,07,09,04,57,10.30
2007,07,09,04,58,10.30
2007,07,09,04,59,10.30
2007,07,09,05,00,10.30
2007,07,09,05,01,10.20
2007,07,09,05,02,10.20
2007,07,09,05,03,10.20
2007,07,09,05,04,10.20
2007,07,09,05,05,10.20
2007,07,09,05,06,10.20
2007,07,09,05,07,10.10
2007,07,09,05,08,10.10
2007,07,09,05,09,10.10
2007,07,09,05,10,10.10
2007,07,09,05,11,10.10
2007,07,09,05,12,10.10
2007,07,09,05,13,10.10
2007,07,09,05,14,10.10
2007,07,09,05,15,10.10
2007,07,09,05,16,10.00
2007,07,09,05,17,10.00
2007,07,09,05,18,10.00
2007,07,09,05,19,10.00
2007,07,09,05,20,10.00
2007,07,09,05,21,10.00
2007,07,09,05,22,10.00
2007,07,09,05,23,9.90
2007,07,09,05,24,9.90
2007,07,09,05,25,9.90
2007,07,09,05,26,9.90
2007,07,09,05,27,9.90
2007,07,09,05,28,9.80
2007,07,09,05,29,9.80
2007,07,09,05,30,9.80
2007,07,09,05,31,9.80
2007,07,09,05,32,9.80
2007,07,09,05,33,9.80
2007,07,09,05,34,9.80
2007,07,09,05,35,9.80
2007,07,09,05,36,9.80
2007,07,09,05,37,9.80
2007,07,09,05,38,9.80
2007,07,09,05,39,9.80
2007,07,09,05,40,9.80
2007,07,09,05,41,9.80
2007,07,09,05,42,9.80
2007,07,09,05,43,9.70
2007,07,09,05,44,9.70
2007,07,09,05,45,9.70
2007,07,09,05,46,9.70
2007,07,09,05,47,9.70
2007,07,09,05,48,9.70
2007,07,09,05,49,9.70
2007,07,09,05,50,9.70
2007,07,09,05,51,9.70
2007,07,09,05,52,9.70
2007,07,09,05,53,9.70
2007,07,09,05,54,9.70
2007,07,09,05,55,9.70
2007,07,09,05,56,9.70
2007,07,09,05,57,9.70
2007,07,09,05,58,9.70
2007,07,09,05,59,9.70
2007,07,09,06,00,9.70
2007,07,09,06,01,9.70
2007,07,09,06,02,9.70
2007,07,09,06,03,9.70
2007,07,09,06,04,9.70
2007,07,09,06,05,9.70
2007,07,09,06,06,9.70
2007,07,09,06,07,9.70
2007,07,09,06,08,9.70
2007,07,09,06,09,9.70
2007,07,09,06,10,9.70
2007,07,09,06,11,9.70
2007,07,09,06,12,9.70
2007,07,09,06,13,9.70
2007,07,09,06,14,9.70
2007,07,09,06,15,9.70
2007,07,09,06,16,9.70
2007,07,09,06,17,9.70
2007,07,09,06,18,9.70
2007,07,09,06,19,9.70
2007,07,09,06,20,9.70
2007,07,09,06,21,9.70
2007,07,09,06,22,9.70
2007,07,09,06,23,9.70
2007,07,09,06,24,9.70
2007,07,09,06,25,9.70
2007,07,09,06,26,9.70
2007,07,09,06,27,9.80
2007,07,09,06,28,9.80
2007,07,09,06,29,9.80
2007,07,09,06,30,9.80
2007,07,09,06,31,9.80
2007,07,09,06,32,9.80
2007,07,09,06,33,9.80
2007,07,09,06,34,9.80
2007,07,09,06,35,9.80
2007,07,09,06,36,9.80
2007,07,09,06,37,9.80
2007,07,09,06,38,9.80
2007,07,09,06,39,9.80
2007,07,09,06,40,9.80
2007,07,09,06,41,9.80
2007,07,09,06,42,9.80
2007,07,09,06,43,9.80
2007,07,09,06,44,9.80
2007,07,09,06,45,9.80
2007,07,09,06,46,9.80
2007,07,09,06,47,9.80
2007,07,09,06,48,9.80
2007,07,09,06,49,9.90
2007,07,09,06,50,9.90
2007,07,09,06,51,9.90
2007,07,09,06,52,9.90
2007,07,09,06,53,9.90
2007,07,09,06,54,9.90
2007,07,09,06,55,9.90
2007,07,09,06,56,9.90
2007,07,09,06,57,9.90
2007,07,09,06,58,9.90
2007,07,09,06,59,10.00
2007,07,09,07,00,10.00
2007,07,09,07,01,10.00
2007,07,09,07,02,10.00
2007,07,09,07,03,10.00
2007,07,09,07,04,10.10
2007,07,09,07,05,10.10
2007,07,09,07,06,10.10
2007,07,09,07,07,10.10
2007,07,09,07,08,10.10
2007,07,09,07,09,10.10
2007,07,09,07,10,10.20
2007,07,09,07,11,10.20
2007,07,09,07,12,10.30
2007,07,09,07,13,10.30
2007,07,09,07,14,10.40
2007,07,09,07,15,10.40
2007,07,09,07,16,10.50
2007,07,09,07,17,10.60
2007,07,09,07,18,10.60
2007,07,09,07,19,10.70
2007,07,09,07,20,10.80
2007,07,09,07,21,10.90
2007,07,09,07,22,11.10
2007,07,09,07,23,11.20
2007,07,09,07,24,11.30
2007,07,09,07,25,11.30
2007,07,09,07,26,11.40
2007,07,09,07,27,11.50
2007,07,09,07,28,11.50
2007,07,09,07,29,11.60
2007,07,09,07,30,11.70
2007,07,09,07,31,11.80
2007,07,09,07,32,11.90
2007,07,09,07,33,12.00
2007,07,09,07,34,12.10
2007,07,09,07,35,12.20
2007,07,09,07,36,12.20
2007,07,09,07,37,12.30
2007,07,09,07,38,12.40
2007,07,09,07,39,12.40
2007,07,09,07,40,12.50
2007,07,09,07,41,12.60
2007,07,09,07,42,12.60
2007,07,09,07,43,12.70
2007,07,09,07,44,12.80
2007,07,09,07,45,12.80
2007,07,09,07,46,12.90
2007,07,09,07,47,13.00
2007,07,09,07,48,13.10
2007,07,09,07,49,13.20
2007,07,09,07,50,13.20
2007,07,09,07,51,13.30
2007,07,09,07,52,13.30
2007,07,09,07,53,13.40
2007,07,09,07,54,13.40
2007,07,09,07,55,13.50
2007,07,09,07,56,13.60
2007,07,09,07,57,13.70
2007,07,09,07,58,13.90
2007,07,09,07,59,14.00
2007,07,09,08,00,14.10
2007,07,09,08,01,14.30
2007,07,09,08,02,14.40
2007,07,09,08,03,14.60
2007,07,09,08,04,14.70
2007,07,09,08,05,14.90
2007,07,09,08,06,15.00
2007,07,09,08,07,15.00
2007,07,09,08,08,15.00
2007,07,09,08,09,15.00
2007,07,09,08,10,15.00
2007,07,09,08,11,15.10
2007,07,09,08,12,15.20
2007,07,09,08,13,15.30
2007,07,09,08,14,15.30
2007,07,09,08,15,15.30
2007,07,09,08,16,15.30
2007,07,09,08,17,15.30
2007,07,09,08,18,15.40
2007,07,09,08,19,15.50
2007,07,09,08,20,15.60
2007,07,09,08,21,15.70
2007,07,09,08,22,15.90
2007,07,09,08,23,16.00
2007,07,09,08,24,16.10
2007,07,09,08,25,16.20
2007,07,09,08,26,16.30
2007,07,09,08,27,16.40
2007,07,09,08,28,16.60
2007,07,09,08,29,16.60
2007,07,09,08,30,16.60
2007,07,09,08,31,16.70
2007,07,09,08,32,16.70
2007,07,09,08,33,16.70
2007,07,09,08,34,16.70
2007,07,09,08,35,16.70
2007,07,09,08,36,16.80
2007,07,09,08,37,16.80
2007,07,09,08,38,16.90
2007,07,09,08,39,16.90
2007,07,09,08,40,17.00
2007,07,09,08,41,17.10
2007,07,09,08,42,17.20
2007,07,09,08,43,17.20
2007,07,09,08,44,17.30
2007,07,09,08,45,17.40
2007,07,09,08,46,17.50
2007,07,09,08,47,17.60
2007,07,09,08,48,17.60
2007,07,09,08,49,17.70
2007,07,09,08,50,17.70
2007,07,09,08,51,17.80
2007,07,09,08,52,17.80
2007,07,09,08,53,17.80
2007,07,09,08,54,17.80
2007,07,09,08,55,17.80
2007,07,09,08,56,17.90
2007,07,09,08,57,17.90
2007,07,09,08,58,17.90
2007,07,09,08,59,17.90
2007,07,09,09,00,18.00
2007,07,09,09,01,18.10
2007,07,09,09,02,18.10
2007,07,09,09,03,18.20
2007,07,09,09,04,18.20
2007,07,09,09,05,18.20
2007,07,09,09,06,18.20
2007,07,09,09,07,18.30
2007,07,09,09,08,18.30
2007,07,09,09,09,18.40
2007,07,09,09,10,18.50
2007,07,09,09,11,18.50
2007,07,09,09,12,18.60
2007,07,09,09,13,18.70
2007,07,09,09,14,18.70
2007,07,09,09,15,18.70
2007,07,09,09,16,18.70
2007,07,09,09,17,18.80
2007,07,09,09,18,18.80
2007,07,09,09,19,18.80
2007,07,09,09,20,18.80
2007,07,09,09,21,18.90
2007,07,09,09,22,19.00
2007,07,09,09,23,19.10
2007,07,09,09,24,19.20
2007,07,09,09,25,19.30
2007,07,09,09,26,19.30
2007,07,09,09,27,19.30
2007,07,09,09,28,19.30
2007,07,09,09,29,19.30
2007,07,09,09,30,19.30
2007,07,09,09,31,19.30
2007,07,09,09,32,19.40
2007,07,09,09,33,19.40
2007,07,09,09,34,19.40
2007,07,09,09,35,19.40
2007,07,09,09,36,19.40
2007,07,09,09,37,19.50
2007,07,09,09,38,19.50
2007,07,09,09,39,19.60
2007,07,09,09,40,19.70
2007,07,09,09,41,19.80
2007,07,09,09,42,19.90
2007,07,09,09,43,20.00
2007,07,09,09,44,20.00
2007,07,09,09,45,20.10
2007,07,09,09,46,20.20
2007,07,09,09,47,20.30
2007,07,09,09,48,20.30
2007,07,09,09,49,20.40
2007,07,09,09,50,20.40
2007,07,09,09,51,20.50
2007,07,09,09,52,20.60
2007,07,09,09,53,20.70
2007,07,09,09,54,20.70
2007,07,09,09,55,20.90
2007,07,09,09,56,21.00
2007,07,09,09,57,21.10
2007,07,09,09,58,21.20
2007,07,09,09,59,21.20
2007,07,09,10,00,21.30
2007,07,09,10,01,21.20
2007,07,09,10,02,21.10
2007,07,09,10,03,21.00
2007,07,09,10,04,20.80
2007,07,09,10,05,20.80
2007,07,09,10,06,20.70
2007,07,09,10,07,20.60
2007,07,09,10,08,20.60
2007,07,09,10,09,20.60
2007,07,09,10,10,20.60
2007,07,09,10,11,20.60
2007,07,09,10,12,20.70
2007,07,09,10,13,20.80
2007,07,09,10,14,20.90
2007,07,09,10,15,21.10
2007,07,09,10,16,21.30
2007,07,09,10,17,21.40
2007,07,09,10,18,21.60
2007,07,09,10,19,21.70
2007,07,09,10,20,21.80
2007,07,09,10,21,21.80
2007,07,09,10,22,21.80
2007,07,09,10,23,21.80
2007,07,09,10,24,21.90
2007,07,09,10,25,22.00
2007,07,09,10,26,22.10
2007,07,09,10,27,22.20
2007,07,09,10,28,22.40
2007,07,09,10,29,22.50
2007,07,09,10,30,22.50
2007,07,09,10,31,22.60
2007,07,09,10,32,22.60
2007,07,09,10,33,22.60
2007,07,09,10,34,22.40
2007,07,09,10,35,22.40
2007,07,09,10,36,22.40
2007,07,09,10,37,22.40
2007,07,09,10,38,22.50
2007,07,09,10,39,22.40
2007,07,09,10,40,22.40
2007,07,09,10,41,22.40
2007,07,09,10,42,22.40
2007,07,09,10,43,22.40
2007,07,09,10,44,22.40
2007,07,09,10,45,22.40
2007,07,09,10,46,22.40
2007,07,09,10,47,22.50
2007,07,09,10,48,22.60
2007,07,09,10,49,22.60
2007,07,09,10,50,22.70
2007,07,09,10,51,22.80
2007,07,09,10,52,22.90
2007,07,09,10,53,23.00
2007,07,09,10,54,23.10
2007,07,09,10,55,23.20
2007,07,09,10,56,23.20
2007,07,09,10,57,23.10
2007,07,09,10,58,22.90
2007,07,09,10,59,22.80
2007,07,09,11,00,22.70
2007,07,09,11,01,22.70
2007,07,09,11,02,22.70
2007,07,09,11,03,22.80
2007,07,09,11,04,23.00
2007,07,09,11,05,23.10
2007,07,09,11,06,23.10
2007,07,09,11,07,23.10
2007,07,09,11,08,23.10
2007,07,09,11,09,23.10
2007,07,09,11,10,23.10
2007,07,09,11,11,23.10
2007,07,09,11,12,23.00
2007,07,09,11,13,23.00
2007,07,09,11,14,22.90
2007,07,09,11,15,22.90
2007,07,09,11,16,22.90
2007,07,09,11,17,22.90
2007,07,09,11,18,22.90
2007,07,09,11,19,22.90
2007,07,09,11,20,22.90
2007,07,09,11,21,23.00
2007,07,09,11,22,23.10
2007,07,09,11,23,23.10
2007,07,09,11,24,23.20
2007,07,09,11,25,23.20
2007,07,09,11,26,23.20
2007,07,09,11,27,23.30
2007,07,09,11,28,23.40
2007,07,09,11,29,23.40
2007,07,09,11,30,23.40
2007,07,09,11,31,23.40
2007,07,09,11,32,23.40
2007,07,09,11,33,23.40
2007,07,09,11,34,23.50
2007,07,09,11,35,23.60
2007,07,09,11,36,23.70
2007,07,09,11,37,23.80
2007,07,09,11,38,23.80
2007,07,09,11,39,23.80
2007,07,09,11,40,23.70
2007,07,09,11,41,23.70
2007,07,09,11,42,23.80
2007,07,09,11,43,23.80
2007,07,09,11,44,23.80
2007,07,09,11,45,23.90
2007,07,09,11,46,23.90
2007,07,09,11,47,24.00
2007,07,09,11,48,24.20
2007,07,09,11,49,24.30
2007,07,09,11,50,24.50
2007,07,09,11,51,24.60
2007,07,09,11,52,24.70
2007,07,09,11,53,24.80
2007,07,09,11,54,24.90
2007,07,09,11,55,25.00
2007,07,09,11,56,25.10
2007,07,09,11,57,25.20
2007,07,09,11,58,25.10
2007,07,09,11,59,25.10
2007,07,09,12,00,25.10
2007,07,09,12,01,25.10
2007,07,09,12,02,25.10
2007,07,09,12,03,25.10
2007,07,09,12,04,25.20
2007,07,09,12,05,25.30
2007,07,09,12,06,25.40
2007,07,09,12,07,25.50
2007,07,09,12,08,25.50
2007,07,09,12,09,25.40
2007,07,09,12,10,25.40
2007,07,09,12,11,25.30
2007,07,09,12,12,25.20
2007,07,09,12,13,25.10
2007,07,09,12,14,25.00
2007,07,09,12,15,25.00
2007,07,09,12,16,25.00
2007,07,09,12,17,25.10
2007,07,09,12,18,25.20
2007,07,09,12,19,25.30
2007,07,09,12,20,25.30
2007,07,09,12,21,25.20
2007,07,09,12,22,25.20
2007,07,09,12,23,25.10
2007,07,09,12,24,25.10
2007,07,09,12,25,25.00
2007,07,09,12,26,25.00
2007,07,09,12,27,25.00
2007,07,09,12,28,25.00
2007,07,09,12,29,24.90
2007,07,09,12,30,24.90
2007,07,09,12,31,24.90
2007,07,09,12,32,24.80
2007,07,09,12,33,24.80
2007,07,09,12,34,24.80
2007,07,09,12,35,24.90
2007,07,09,12,36,25.00
2007,07,09,12,37,25.10
2007,07,09,12,38,25.20
2007,07,09,12,39,25.20
2007,07,09,12,40,25.10
2007,07,09,12,41,25.10
2007,07,09,12,42,25.10
2007,07,09,12,43,25.10
2007,07,09,12,44,25.20
2007,07,09,12,45,25.30
2007,07,09,12,46,25.30
2007,07,09,12,47,25.20
2007,07,09,12,48,25.10
2007,07,09,12,49,25.10
2007,07,09,12,50,25.10
2007,07,09,12,51,25.20
2007,07,09,12,52,25.20
2007,07,09,12,53,25.20
2007,07,09,12,54,25.20
2007,07,09,12,55,25.30
2007,07,09,12,56,25.30
2007,07,09,12,57,25.30
2007,07,09,12,58,25.30
2007,07,09,12,59,25.30
2007,07,09,13,00,25.30
2007,07,09,13,01,25.40
2007,07,09,13,02,25.50
2007,07,09,13,03,25.50
2007,07,09,13,04,25.60
2007,07,09,13,05,25.60
2007,07,09,13,06,25.70
2007,07,09,13,07,25.80
2007,07,09,13,08,25.90
2007,07,09,13,09,26.00
2007,07,09,13,10,26.20
2007,07,09,13,11,26.30
2007,07,09,13,12,26.40
2007,07,09,13,13,26.60
2007,07,09,13,14,26.70
2007,07,09,13,15,26.80
2007,07,09,13,16,26.90
2007,07,09,13,17,27.00
2007,07,09,13,18,27.00
2007,07,09,13,19,26.90
2007,07,09,13,20,26.90
2007,07,09,13,21,27.00
2007,07,09,13,22,27.20
2007,07,09,13,23,27.30
2007,07,09,13,24,27.40
2007,07,09,13,25,27.50
2007,07,09,13,26,27.50
2007,07,09,13,27,27.50
2007,07,09,13,28,27.40
2007,07,09,13,29,27.10
2007,07,09,13,30,26.90
2007,07,09,13,31,26.70
2007,07,09,13,32,26.50
2007,07,09,13,33,26.30
2007,07,09,13,34,26.30
2007,07,09,13,35,26.30
2007,07,09,13,36,26.30
2007,07,09,13,37,26.30
2007,07,09,13,38,26.40
2007,07,09,13,39,26.60
2007,07,09,13,40,26.70
2007,07,09,13,41,26.80
2007,07,09,13,42,26.90
2007,07,09,13,43,27.00
2007,07,09,13,44,27.00
2007,07,09,13,45,27.10
2007,07,09,13,46,27.10
2007,07,09,13,47,27.10
2007,07,09,13,48,27.20
2007,07,09,13,49,27.10
2007,07,09,13,50,27.00
2007,07,09,13,51,26.80
2007,07,09,13,52,26.70
2007,07,09,13,53,26.60
2007,07,09,13,54,26.60
2007,07,09,13,55,26.60
2007,07,09,13,56,26.60
2007,07,09,13,57,26.70
2007,07,09,13,58,26.80
2007,07,09,13,59,26.90
2007,07,09,14,00,27.00
2007,07,09,14,01,27.20
2007,07,09,14,02,27.40
2007,07,09,14,03,27.40
2007,07,09,14,04,27.30
2007,07,09,14,05,27.20
2007,07,09,14,06,27.00
2007,07,09,14,07,26.90
2007,07,09,14,08,26.80
2007,07,09,14,09,26.70
2007,07,09,14,10,26.60
2007,07,09,14,11,26.70
2007,07,09,14,12,26.70
2007,07,09,14,13,26.70
2007,07,09,14,14,26.70
2007,07,09,14,15,26.60
2007,07,09,14,16,26.60
2007,07,09,14,17,26.50
2007,07,09,14,18,26.40
2007,07,09,14,19,26.40
2007,07,09,14,20,26.30
2007,07,09,14,21,26.30
2007,07,09,14,22,26.30
2007,07,09,14,23,26.30
2007,07,09,14,24,26.30
2007,07,09,14,25,26.40
2007,07,09,14,26,26.40
2007,07,09,14,27,26.30
2007,07,09,14,28,26.40
2007,07,09,14,29,26.50
2007,07,09,14,30,26.70
2007,07,09,14,31,26.90
2007,07,09,14,32,26.90
2007,07,09,14,33,27.00
2007,07,09,14,34,27.00
2007,07,09,14,35,27.10
2007,07,09,14,36,27.20
2007,07,09,14,37,27.20
2007,07,09,14,38,27.10
2007,07,09,14,39,27.00
2007,07,09,14,40,27.00
2007,07,09,14,41,27.00
2007,07,09,14,42,26.90
2007,07,09,14,43,26.80
2007,07,09,14,44,26.80
2007,07,09,14,45,26.80
2007,07,09,14,46,26.80
2007,07,09,14,47,26.90
2007,07,09,14,48,26.90
2007,07,09,14,49,27.00
2007,07,09,14,50,27.10
2007,07,09,14,51,27.10
2007,07,09,14,52,27.20
2007,07,09,14,53,27.20
2007,07,09,14,54,27.30
2007,07,09,14,55,27.30
2007,07,09,14,56,27.30
2007,07,09,14,57,27.40
2007,07,09,14,58,27.40
2007,07,09,14,59,27.40
2007,07,09,15,00,27.40
2007,07,09,15,01,27.40
2007,07,09,15,02,27.40
2007,07,09,15,03,27.30
2007,07,09,15,04,27.10
2007,07,09,15,05,27.00
2007,07,09,15,06,27.00
2007,07,09,15,07,27.10
2007,07,09,15,08,27.20
2007,07,09,15,09,27.30
2007,07,09,15,10,27.30
2007,07,09,15,11,27.40
2007,07,09,15,12,27.50
2007,07,09,15,13,27.60
2007,07,09,15,14,27.60
2007,07,09,15,15,27.70
2007,07,09,15,16,27.70
2007,07,09,15,17,27.70
2007,07,09,15,18,27.70
2007,07,09,15,19,27.70
2007,07,09,15,20,27.70
2007,07,09,15,21,27.60
2007,07,09,15,22,27.50
2007,07,09,15,23,27.40
2007,07,09,15,24,27.40
2007,07,09,15,25,27.40
2007,07,09,15,26,27.30
2007,07,09,15,27,27.30
2007,07,09,15,28,27.30
2007,07,09,15,29,27.40
2007,07,09,15,30,27.60
2007,07,09,15,31,27.70
2007,07,09,15,32,27.80
2007,07,09,15,33,27.90
2007,07,09,15,34,27.90
2007,07,09,15,35,28.00
2007,07,09,15,36,28.00
2007,07,09,15,37,28.00
2007,07,09,15,38,28.00
2007,07,09,15,39,28.10
2007,07,09,15,40,28.00
2007,07,09,15,41,27.90
2007,07,09,15,42,27.90
2007,07,09,15,43,27.90
2007,07,09,15,44,27.80
2007,07,09,15,45,27.80
2007,07,09,15,46,27.70
2007,07,09,15,47,27.70
2007,07,09,15,48,27.70
2007,07,09,15,49,27.70
2007,07,09,15,50,27.70
2007,07,09,15,51,27.70
2007,07,09,15,52,27.80
2007,07,09,15,53,27.80
2007,07,09,15,54,27.90
2007,07,09,15,55,28.00
2007,07,09,15,56,28.10
2007,07,09,15,57,28.20
2007,07,09,15,58,28.20
2007,07,09,15,59,28.20
2007,07,09,16,00,28.20
2007,07,09,16,01,28.30
2007,07,09,16,02,28.30
2007,07,09,16,03,28.30
2007,07,09,16,04,28.30
2007,07,09,16,05,28.30
2007,07,09,16,06,28.30
2007,07,09,16,07,28.30
2007,07,09,16,08,28.20
2007,07,09,16,09,28.10
2007,07,09,16,10,28.00
2007,07,09,16,11,27.90
2007,07,09,16,12,27.90
2007,07,09,16,13,27.90
2007,07,09,16,14,28.00
2007,07,09,16,15,27.90
2007,07,09,16,16,28.00
2007,07,09,16,17,28.10
2007,07,09,16,18,28.10
2007,07,09,16,19,28.20
2007,07,09,16,20,28.20
2007,07,09,16,21,28.20
2007,07,09,16,22,28.10
2007,07,09,16,23,28.20
2007,07,09,16,24,28.10
2007,07,09,16,25,28.10
2007,07,09,16,26,28.20
2007,07,09,16,27,28.20
2007,07,09,16,28,28.20
2007,07,09,16,29,28.20
2007,07,09,16,30,28.20
2007,07,09,16,31,28.20
2007,07,09,16,32,28.30
2007,07,09,16,33,28.30
2007,07,09,16,34,28.30
2007,07,09,16,35,28.40
2007,07,09,16,36,28.50
2007,07,09,16,37,28.50
2007,07,09,16,38,28.70
2007,07,09,16,39,28.90
2007,07,09,16,40,29.00
2007,07,09,16,41,29.10
2007,07,09,16,42,29.20
2007,07,09,16,43,29.40
2007,07,09,16,44,29.60
2007,07,09,16,45,29.80
2007,07,09,16,46,29.70
2007,07,09,16,47,29.70
2007,07,09,16,48,29.80
2007,07,09,16,49,29.90
2007,07,09,16,50,30.00
2007,07,09,16,51,30.10
2007,07,09,16,52,30.10
2007,07,09,16,53,30.20
2007,07,09,16,54,30.20
2007,07,09,16,55,30.20
2007,07,09,16,56,30.10
2007,07,09,16,57,30.00
2007,07,09,16,58,30.00
2007,07,09,16,59,29.90
2007,07,09,17,00,29.90
2007,07,09,17,01,29.90
2007,07,09,17,02,29.80
2007,07,09,17,03,29.80
2007,07,09,17,04,29.70
2007,07,09,17,05,29.60
2007,07,09,17,06,29.60
2007,07,09,17,07,29.50
2007,07,09,17,08,29.30
2007,07,09,17,09,29.30
2007,07,09,17,10,29.20
2007,07,09,17,11,29.10
2007,07,09,17,12,29.10
2007,07,09,17,13,29.00
2007,07,09,17,14,28.90
2007,07,09,17,15,28.90
2007,07,09,17,16,28.80
2007,07,09,17,17,28.80
2007,07,09,17,18,28.80
2007,07,09,17,19,28.80
2007,07,09,17,20,28.80
2007,07,09,17,21,28.80
2007,07,09,17,22,28.80
2007,07,09,17,23,28.80
2007,07,09,17,24,28.80